RADUGA 23 [-]

Last updated on Nov. 11, 2019, 4:17 a.m. UTC

1 19928U 89030A   19314.75675490  .00000128  00000-0  00000+0 0  9990
2 19928  14.3981 351.1141 0016864 137.6563 222.0508  1.00281754110671
UTC
Height (km)
Latitude
Longitude
Inclination
Orbital Period
UTC large
Height (km)
Speed (km/s)
/
Latitude / Longitude
Inclination (degrees)
Orbital Period (minutes)
Azimuth
Elevation
Range (km)
Doppler Factor
iOS Compass Heading
iOS Angle

Next 30 passes for location: Hong Kong

Rise time Rise Azimuth (degrees) Set time Set Azimuth (degrees) Duration Max altitude (degrees)

No matching passes for this satellites